Regional Weather Roundup
Issued by NWS

Home | Current Version | Previous Version | Graphics & Text | Print | Product List | Glossary On
Versions: 1 2 3 4 5 6 7 8 9 10 11 12 13 14 15 16 17 18 19 20 21 22 23 24 25 26 27 28 29 30 31 32 33 34 35 36 37 38 39 40 41 42 43 44 45 46 47 48 49 50
000
ASUS43 KFSD 270902
RWRSD

WEATHER ROUNDUP FOR SOUTH DAKOTA
NATIONAL WEATHER SERVICE SIOUX FALLS SD
400 AM CDT FRI MAY 27 2016

NOTE: "FAIR" INDICATES FEW OR NO CLOUDS BELOW 12,000 FEET WITH NO
SIGNIFICANT WEATHER AND/OR OBSTRUCTIONS TO VISIBILITY.


SDZ001>005-009-010-012>017-271000-
NORTHWEST AND NORTH CENTRAL SOUTH DAKOTA

CITY           SKY/WX    TMP DP  RH WIND       PRES   REMARKS
BUFFALO          N/A     47  42  83 NW3       29.80S
FAITH            N/A     46  40  79 N8        29.85R
MOBRIDGE       CLEAR     51  47  86 N8        29.78F
$$

SDZ012>016-024>037-041>051-057-063-072>074-271000-
SOUTHWEST AND SOUTH CENTRAL SOUTH DAKOTA

CITY           SKY/WX    TMP DP  RH WIND       PRES   REMARKS
RAPID CTY ARPT MOCLDY    50  42  74 W7        29.86F
PIERRE         CLOUDY    55  50  83 NW8       29.77F
CUSTER         CLOUDY    45  37  73 CALM      29.93S
ELLSWORTH AFB  CLOUDY    50  44  78 NW10      29.86F
PHILIP         CLOUDY    51  47  86 N8        29.81F
PINE RIDGE     MOCLDY    52  47  83 N3        29.83F
WINNER         FAIR      60  51  72 MISG      29.75S
$$

SDZ004>011-016>023-039-040-271000-
NORTHEAST SOUTH DAKOTA

CITY           SKY/WX    TMP DP  RH WIND       PRES   REMARKS
ABERDEEN       MOCLDY    62  52  69 CALM      29.75F
WATERTOWN      CLOUDY    58  52  80 SE8       29.79R
BROOKINGS      CLOUDY    58  55  90 SE5       29.79S
SISSETON         N/A     54  53  97 CALM      29.76S
$$

SDZ017-020-022-023-036>040-048>070-271000-
SOUTHEAST SOUTH DAKOTA

CITY           SKY/WX    TMP DP  RH WIND       PRES   REMARKS
SIOUX FALLS    CLOUDY    58  54  86 CALM      29.78F
HURON          MOCLDY    57  54  89 E3        29.76S
MITCHELL       CLOUDY    60  58  92 SE5       29.76F
YANKTON        CLOUDY    59  55  88 SE6       29.77F
$$

ABBREVIATIONS USED IN REMARKS
   TC - TEMPERATURE IN CELSIUS
  WCI - WIND CHILL INDEX
   HX - HEAT INDEX
  VSB - VISIBILITY





USA.gov is the U.S. government's official web portal to all federal, state and local government web resources and services.